Serial_number:,,,,
1023733,,,,
Project ID:,,,,
CWS,,,,
Location:,,,,
NFA,,,,
Level,,,,
UNIT: m,,,,
Offset: 0.000000 m,,,,
Altitude: 360.000000 m,,,,
Density: 1.000000 kg/L,,,,
Temperature,,,,
UNIT: Deg C,,,,
Date,Time,ms,Level,Temperature
1/1/15,0:00:00,0,1.5411,2.225
1/1/15,0:15:00,0,1.542,2.208
1/1/15,0:30:00,0,1.5388,2.201
1/1/15,0:45:00,0,1.5447,2.193
1/1/15,1:00:00,0,1.5455,2.184
1/1/15,1:15:00,0,1.5482,2.169
1/1/15,1:30:00,0,1.5496,2.159
1/1/15,1:45:00,0,1.5524,2.147
1/1/15,2:00:00,0,1.5554,2.136
1/1/15,2:15:00,0,1.5607,2.125
1/1/15,2:30:00,0,1.549,2.111
1/1/15,2:45:00,0,1.5615,2.098
1/1/15,3:00:00,0,1.5596,2.094
1/1/15,3:15:00,0,1.5734,2.084
1/1/15,3:30:00,0,1.568,2.075
1/1/15,3:45:00,0,1.5627,2.067
1/1/15,4:00:00,0,1.5683,2.058
1/1/15,4:15:00,0,1.5629,2.051
1/1/15,4:30:00,0,1.5695,2.044
1/1/15,4:45:00,0,1.5623,2.036
1/1/15,5:00:00,0,1.5659,2.024
1/1/15,5:15:00,0,1.5636,2.008
1/1/15,5:30:00,0,1.5594,1.993
1/1/15,5:45:00,0,1.5621,1.978
1/1/15,6:00:00,0,1.5617,1.962
1/1/15,6:15:00,0,1.5609,1.944
1/1/15,6:30:00,0,1.5667,1.929
1/1/15,6:45:00,0,1.5629,1.916
1/1/15,7:00:00,0,1.5593,1.897
1/1/15,7:15:00,0,1.5671,1.881
1/1/15,7:30:00,0,1.5713,1.862
1/1/15,7:45:00,0,1.565,1.841
1/1/15,8:00:00,0,1.5709,1.826
1/1/15,8:15:00,0,1.5733,1.808
1/1/15,8:30:00,0,1.5765,1.793
1/1/15,8:45:00,0,1.5756,1.782
1/1/15,9:00:00,0,1.5766,1.772
1/1/15,9:15:00,0,1.5785,1.762
1/1/15,9:30:00,0,1.5807,1.755
1/1/15,9:45:00,0,1.5746,1.755
1/1/15,10:00:00,0,1.5742,1.752
1/1/15,10:15:00,0,1.5874,1.75
1/1/15,10:30:00,0,1.579,1.745
1/1/15,10:45:00,0,1.5732,1.741
1/1/15,11:00:00,0,1.5802,1.738
1/1/15,11:15:00,0,1.579,1.735
1/1/15,11:30:00,0,1.5736,1.73
1/1/15,11:45:00,0,1.5758,1.728
1/1/15,12:00:00,0,1.5728,1.727
1/1/15,12:15:00,0,1.5645,1.724
1/1/15,12:30:00,0,1.5648,1.733
1/1/15,12:45:00,0,1.5587,1.761
1/1/15,13:00:00,0,1.558,1.774
1/1/15,13:15:00,0,1.5561,1.789
1/1/15,13:30:00,0,1.5525,1.812
1/1/15,13:45:00,0,1.5518,1.847
1/1/15,14:00:00,0,1.5541,1.885
1/1/15,14:15:00,0,1.5513,1.915
1/1/15,14:30:00,0,1.544,1.941
1/1/15,14:45:00,0,1.5446,1.967
1/1/15,15:00:00,0,1.5413,1.987
1/1/15,15:15:00,0,1.5387,2.006
1/1/15,15:30:00,0,1.5438,2.013
1/1/15,15:45:00,0,1.5378,2.014
1/1/15,16:00:00,0,1.5378,2.003
1/1/15,16:15:00,0,1.5388,2.001
1/1/15,16:30:00,0,1.5447,1.999
1/1/15,16:45:00,0,1.5397,2
1/1/15,17:00:00,0,1.5443,2.006
1/1/15,17:15:00,0,1.5486,2.016
1/1/15,17:30:00,0,1.5493,2.033
1/1/15,17:45:00,0,1.5521,2.052
1/1/15,18:00:00,0,1.5538,2.072
1/1/15,18:15:00,0,1.5548,2.092
1/1/15,18:30:00,0,1.5541,2.111
1/1/15,18:45:00,0,1.5596,2.132
1/1/15,19:00:00,0,1.5564,2.155
1/1/15,19:15:00,0,1.562,2.179
1/1/15,19:30:00,0,1.5631,2.199
1/1/15,19:45:00,0,1.5586,2.218
1/1/15,20:00:00,0,1.5623,2.234
1/1/15,20:15:00,0,1.5639,2.245
1/1/15,20:30:00,0,1.5607,2.252
1/1/15,20:45:00,0,1.5574,2.252
1/1/15,21:00:00,0,1.5626,2.247
1/1/15,21:15:00,0,1.5644,2.239
1/1/15,21:30:00,0,1.5596,2.227
1/1/15,21:45:00,0,1.5615,2.216
1/1/15,22:00:00,0,1.5649,2.205
1/1/15,22:15:00,0,1.5592,2.195
1/1/15,22:30:00,0,1.5589,2.185
1/1/15,22:45:00,0,1.5597,2.176
1/1/15,23:00:00,0,1.5618,2.167
1/1/15,23:15:00,0,1.5696,2.16
1/1/15,23:30:00,0,1.5688,2.149
1/1/15,23:45:00,0,1.5708,2.141
1/2/15,0:00:00,0,1.5722,2.134
1/2/15,0:15:00,0,1.5703,2.127
1/2/15,0:30:00,0,1.5807,2.122
1/2/15,0:45:00,0,1.5785,2.115
1/2/15,1:00:00,0,1.5776,2.112
1/2/15,1:15:00,0,1.5744,2.109
1/2/15,1:30:00,0,1.5741,2.105
1/2/15,1:45:00,0,1.5843,2.102
1/2/15,2:00:00,0,1.5712,2.1
1/2/15,2:15:00,0,1.5741,2.097
1/2/15,2:30:00,0,1.5798,2.095
1/2/15,2:45:00,0,1.5767,2.091
1/2/15,3:00:00,0,1.5821,2.085
1/2/15,3:15:00,0,1.5774,2.082
1/2/15,3:30:00,0,1.5809,2.076
1/2/15,3:45:00,0,1.5744,2.07
1/2/15,4:00:00,0,1.5726,2.063
1/2/15,4:15:00,0,1.5749,2.053
1/2/15,4:30:00,0,1.5708,2.045
1/2/15,4:45:00,0,1.5785,2.036
1/2/15,5:00:00,0,1.5698,2.026
1/2/15,5:15:00,0,1.5723,2.015
1/2/15,5:30:00,0,1.5669,2.006
1/2/15,5:45:00,0,1.571,1.995
1/2/15,6:00:00,0,1.5724,1.986
1/2/15,6:15:00,0,1.5725,1.976
1/2/15,6:30:00,0,1.5714,1.966
1/2/15,6:45:00,0,1.5728,1.956
1/2/15,7:00:00,0,1.5745,1.945
1/2/15,7:15:00,0,1.5734,1.935
1/2/15,7:30:00,0,1.5801,1.923
1/2/15,7:45:00,0,1.5799,1.912
1/2/15,8:00:00,0,1.5747,1.901
1/2/15,8:15:00,0,1.5826,1.888
1/2/15,8:30:00,0,1.5826,1.878
1/2/15,8:45:00,0,1.5861,1.871
1/2/15,9:00:00,0,1.5802,1.863
1/2/15,9:15:00,0,1.5894,1.859
1/2/15,9:30:00,0,1.5824,1.856
1/2/15,9:45:00,0,1.5831,1.85
1/2/15,10:00:00,0,1.583,1.846
1/2/15,10:15:00,0,1.5851,1.845
1/2/15,10:30:00,0,1.5809,1.845
1/2/15,10:45:00,0,1.5795,1.841
1/2/15,11:00:00,0,1.5717,1.837
1/2/15,11:15:00,0,1.5812,1.838
1/2/15,11:30:00,0,1.5689,1.841
1/2/15,11:45:00,0,1.566,1.841
1/2/15,12:00:00,0,1.5632,1.842
1/2/15,12:15:00,0,1.5562,1.844
1/2/15,12:30:00,0,1.5494,1.851
1/2/15,12:45:00,0,1.5441,1.881
1/2/15,13:00:00,0,1.5408,1.891
1/2/15,13:15:00,0,1.5403,1.903
1/2/15,13:30:00,0,1.5248,1.924
1/2/15,13:45:00,0,1.5269,1.956
1/2/15,14:00:00,0,1.5252,1.991
1/2/15,14:15:00,0,1.5236,2.019
1/2/15,14:30:00,0,1.5181,2.044
1/2/15,14:45:00,0,1.5205,2.065
1/2/15,15:00:00,0,1.5209,2.086
1/2/15,15:15:00,0,1.5229,2.104
1/2/15,15:30:00,0,1.5211,2.115
1/2/15,15:45:00,0,1.5202,2.121
1/2/15,16:00:00,0,1.524,2.107
1/2/15,16:15:00,0,1.5247,2.109
1/2/15,16:30:00,0,1.5249,2.109
1/2/15,16:45:00,0,1.5281,2.111
1/2/15,17:00:00,0,1.5342,2.12
1/2/15,17:15:00,0,1.523,2.131
1/2/15,17:30:00,0,1.5302,2.147
1/2/15,17:45:00,0,1.527,2.167
1/2/15,18:00:00,0,1.5322,2.187
1/2/15,18:15:00,0,1.5316,2.206
1/2/15,18:30:00,0,1.5358,2.227
1/2/15,18:45:00,0,1.5355,2.248
1/2/15,19:00:00,0,1.5392,2.266
1/2/15,19:15:00,0,1.5462,2.288
1/2/15,19:30:00,0,1.5443,2.31
1/2/15,19:45:00,0,1.539,2.33
1/2/15,20:00:00,0,1.5383,2.348
1/2/15,20:15:00,0,1.5393,2.363
1/2/15,20:30:00,0,1.5393,2.371
1/2/15,20:45:00,0,1.5402,2.377
1/2/15,21:00:00,0,1.5385,2.375
1/2/15,21:15:00,0,1.543,2.372
1/2/15,21:30:00,0,1.5459,2.362
1/2/15,21:45:00,0,1.5452,2.352
1/2/15,22:00:00,0,1.5429,2.343
1/2/15,22:15:00,0,1.5471,2.332
1/2/15,22:30:00,0,1.5486,2.323
1/2/15,22:45:00,0,1.5502,2.315
1/2/15,23:00:00,0,1.5532,2.307
1/2/15,23:15:00,0,1.5594,2.3
1/2/15,23:30:00,0,1.5604,2.291
1/2/15,23:45:00,0,1.5621,2.282
1/3/15,0:00:00,0,1.5545,2.271
1/3/15,0:15:00,0,1.5575,2.261
1/3/15,0:30:00,0,1.5563,2.25
1/3/15,0:45:00,0,1.5612,2.244
1/3/15,1:00:00,0,1.5593,2.235
1/3/15,1:15:00,0,1.5576,2.228
1/3/15,1:30:00,0,1.5531,2.221
1/3/15,1:45:00,0,1.5605,2.211
1/3/15,2:00:00,0,1.5629,2.207
1/3/15,2:15:00,0,1.5749,2.201
1/3/15,2:30:00,0,1.5581,2.193
1/3/15,2:45:00,0,1.559,2.189
1/3/15,3:00:00,0,1.565,2.181
1/3/15,3:15:00,0,1.568,2.176
1/3/15,3:30:00,0,1.5694,2.171
1/3/15,3:45:00,0,1.5657,2.163
1/3/15,4:00:00,0,1.5645,2.155
1/3/15,4:15:00,0,1.5667,2.148
1/3/15,4:30:00,0,1.5628,2.14
1/3/15,4:45:00,0,1.5621,2.13
1/3/15,5:00:00,0,1.562,2.122
1/3/15,5:15:00,0,1.5594,2.111
1/3/15,5:30:00,0,1.5592,2.101
1/3/15,5:45:00,0,1.5669,2.09
1/3/15,6:00:00,0,1.5626,2.08
1/3/15,6:15:00,0,1.5602,2.071
1/3/15,6:30:00,0,1.5652,2.058
1/3/15,6:45:00,0,1.5701,2.051
1/3/15,7:00:00,0,1.5658,2.04
1/3/15,7:15:00,0,1.569,2.028
1/3/15,7:30:00,0,1.5731,2.019
1/3/15,7:45:00,0,1.5682,2.009
1/3/15,8:00:00,0,1.57,1.997
1/3/15,8:15:00,0,1.5811,1.986
1/3/15,8:30:00,0,1.5746,1.979
1/3/15,8:45:00,0,1.5748,1.97
1/3/15,9:00:00,0,1.5768,1.963
1/3/15,9:15:00,0,1.5792,1.961
1/3/15,9:30:00,0,1.5761,1.952
1/3/15,9:45:00,0,1.5701,1.953
1/3/15,10:00:00,0,1.5751,1.955
1/3/15,10:15:00,0,1.5727,1.965
1/3/15,10:30:00,0,1.5732,1.97
1/3/15,10:45:00,0,1.5833,1.982
1/3/15,11:00:00,0,1.5768,1.993
1/3/15,11:15:00,0,1.5781,1.99
1/3/15,11:30:00,0,1.5777,1.992
1/3/15,11:45:00,0,1.5766,1.991
1/3/15,12:00:00,0,1.5736,1.998
1/3/15,12:15:00,0,1.5664,1.998
1/3/15,12:30:00,0,1.5631,2.007
1/3/15,12:45:00,0,1.5606,2.039
1/3/15,13:00:00,0,1.5566,2.056
1/3/15,13:15:00,0,1.5537,2.068
1/3/15,13:30:00,0,1.5543,2.093
1/3/15,13:45:00,0,1.5568,2.128
1/3/15,14:00:00,0,1.5558,2.167
1/3/15,14:15:00,0,1.5541,2.199
1/3/15,14:30:00,0,1.5531,2.23
1/3/15,14:45:00,0,1.5522,2.25
1/3/15,15:00:00,0,1.5504,2.267
1/3/15,15:15:00,0,1.5456,2.284
1/3/15,15:30:00,0,1.5559,2.295
1/3/15,15:45:00,0,1.5549,2.297
1/3/15,16:00:00,0,1.5464,2.277
1/3/15,16:15:00,0,1.5557,2.273
1/3/15,16:30:00,0,1.5572,2.267
1/3/15,16:45:00,0,1.563,2.265
1/3/15,17:00:00,0,1.5622,2.268
1/3/15,17:15:00,0,1.5621,2.272
1/3/15,17:30:00,0,1.5627,2.288
1/3/15,17:45:00,0,1.5642,2.304
1/3/15,18:00:00,0,1.566,2.321
1/3/15,18:15:00,0,1.5599,2.343
1/3/15,18:30:00,0,1.5747,2.364
1/3/15,18:45:00,0,1.5735,2.389
1/3/15,19:00:00,0,1.5762,2.415
1/3/15,19:15:00,0,1.5762,2.438
1/3/15,19:30:00,0,1.5838,2.464
1/3/15,19:45:00,0,1.5808,2.488
1/3/15,20:00:00,0,1.5821,2.51
1/3/15,20:15:00,0,1.5864,2.529
1/3/15,20:30:00,0,1.5845,2.545
1/3/15,20:45:00,0,1.5863,2.555
1/3/15,21:00:00,0,1.5822,2.562
1/3/15,21:15:00,0,1.5862,2.562
1/3/15,21:30:00,0,1.5777,2.56
1/3/15,21:45:00,0,1.5863,2.551
1/3/15,22:00:00,0,1.5794,2.543
1/3/15,22:15:00,0,1.5814,2.531
1/3/15,22:30:00,0,1.5892,2.523
1/3/15,22:45:00,0,1.5871,2.516
1/3/15,23:00:00,0,1.5878,2.508
1/3/15,23:15:00,0,1.5851,2.502
1/3/15,23:30:00,0,1.5806,2.495
1/3/15,23:45:00,0,1.5887,2.488
1/4/15,0:00:00,0,1.5905,2.477
1/4/15,0:15:00,0,1.5879,2.468
1/4/15,0:30:00,0,1.5962,2.462
1/4/15,0:45:00,0,1.5955,2.453
1/4/15,1:00:00,0,1.5936,2.445
1/4/15,1:15:00,0,1.5909,2.437
1/4/15,1:30:00,0,1.5901,2.427
1/4/15,1:45:00,0,1.5914,2.42
1/4/15,2:00:00,0,1.5941,2.414
1/4/15,2:15:00,0,1.5889,2.408
1/4/15,2:30:00,0,1.593,2.404
1/4/15,2:45:00,0,1.5922,2.399
1/4/15,3:00:00,0,1.5939,2.396
1/4/15,3:15:00,0,1.5976,2.394
1/4/15,3:30:00,0,1.5962,2.392
1/4/15,3:45:00,0,1.5961,2.389
1/4/15,4:00:00,0,1.5992,2.386
1/4/15,4:15:00,0,1.5915,2.385
1/4/15,4:30:00,0,1.5992,2.379
1/4/15,4:45:00,0,1.5963,2.377
1/4/15,5:00:00,0,1.5921,2.374
1/4/15,5:15:00,0,1.5984,2.374
1/4/15,5:30:00,0,1.5932,2.369
1/4/15,5:45:00,0,1.6021,2.366
1/4/15,6:00:00,0,1.595,2.363
1/4/15,6:15:00,0,1.6009,2.357
1/4/15,6:30:00,0,1.6004,2.357
1/4/15,6:45:00,0,1.6005,2.356
1/4/15,7:00:00,0,1.6055,2.358
1/4/15,7:15:00,0,1.6064,2.365
1/4/15,7:30:00,0,1.6064,2.37
1/4/15,7:45:00,0,1.6134,2.374
1/4/15,8:00:00,0,1.6115,2.378
1/4/15,8:15:00,0,1.6091,2.386
1/4/15,8:30:00,0,1.6187,2.392
1/4/15,8:45:00,0,1.6221,2.398
1/4/15,9:00:00,0,1.6236,2.406
1/4/15,9:15:00,0,1.6181,2.414
1/4/15,9:30:00,0,1.6036,2.423
1/4/15,9:45:00,0,1.599,2.441
1/4/15,10:00:00,0,1.6011,2.462
1/4/15,10:15:00,0,1.6011,2.491
1/4/15,10:30:00,0,1.6005,2.525
1/4/15,10:45:00,0,1.6077,2.562
1/4/15,11:00:00,0,1.6118,2.6
1/4/15,11:15:00,0,1.6065,2.639
1/4/15,11:30:00,0,1.609,2.681
1/4/15,11:45:00,0,1.6156,2.731
1/4/15,12:00:00,0,1.6019,2.781
1/4/15,12:15:00,0,1.604,2.838
1/4/15,12:30:00,0,1.5997,2.894
1/4/15,12:45:00,0,1.6007,2.955
1/4/15,13:00:00,0,1.5903,3.006
1/4/15,13:15:00,0,1.5887,3.062
1/4/15,13:30:00,0,1.596,3.142
1/4/15,13:45:00,0,1.5833,3.179
1/4/15,14:00:00,0,1.5932,3.201
1/4/15,14:15:00,0,1.5874,3.242
1/4/15,14:30:00,0,1.5902,3.278
1/4/15,14:45:00,0,1.5867,3.315
1/4/15,15:00:00,0,1.5853,3.334
1/4/15,15:15:00,0,1.5837,3.345
1/4/15,15:30:00,0,1.586,3.363
1/4/15,15:45:00,0,1.5836,3.383
1/4/15,16:00:00,0,1.5863,3.393
1/4/15,16:15:00,0,1.5936,3.408
1/4/15,16:30:00,0,1.5882,3.414
1/4/15,16:45:00,0,1.5954,3.418
1/4/15,17:00:00,0,1.5961,3.426
1/4/15,17:15:00,0,1.5913,3.433
1/4/15,17:30:00,0,1.5797,3.438
1/4/15,17:45:00,0,1.5882,3.439
1/4/15,18:00:00,0,1.5915,3.441
1/4/15,18:15:00,0,1.5906,3.443
1/4/15,18:30:00,0,1.5956,3.446
1/4/15,18:45:00,0,1.5963,3.453
1/4/15,19:00:00,0,1.597,3.466
1/4/15,19:15:00,0,1.6017,3.483
1/4/15,19:30:00,0,1.6016,3.505
1/4/15,19:45:00,0,1.6041,3.528
1/4/15,20:00:00,0,1.5953,3.55
1/4/15,20:15:00,0,1.6007,3.569
1/4/15,20:30:00,0,1.5983,3.588
1/4/15,20:45:00,0,1.5969,3.599
1/4/15,21:00:00,0,1.5963,3.61
1/4/15,21:15:00,0,1.5942,3.614
1/4/15,21:30:00,0,1.5917,3.619
1/4/15,21:45:00,0,1.5937,3.618
1/4/15,22:00:00,0,1.5998,3.614
1/4/15,22:15:00,0,1.5995,3.612
1/4/15,22:30:00,0,1.6018,3.607
1/4/15,22:45:00,0,1.6052,3.604
1/4/15,23:00:00,0,1.6019,3.597
1/4/15,23:15:00,0,1.5988,3.59
1/4/15,23:30:00,0,1.6006,3.585
1/4/15,23:45:00,0,1.6046,3.578
1/5/15,0:00:00,0,1.604,3.573
1/5/15,0:15:00,0,1.6042,3.565
1/5/15,0:30:00,0,1.6051,3.56
1/5/15,0:45:00,0,1.5987,3.551
1/5/15,1:00:00,0,1.6036,3.541
1/5/15,1:15:00,0,1.6016,3.533
1/5/15,1:30:00,0,1.6037,3.525
1/5/15,1:45:00,0,1.5991,3.519
1/5/15,2:00:00,0,1.6061,3.511
1/5/15,2:15:00,0,1.5988,3.505
1/5/15,2:30:00,0,1.6018,3.5
1/5/15,2:45:00,0,1.6049,3.493
1/5/15,3:00:00,0,1.6,3.489
1/5/15,3:15:00,0,1.6087,3.48
1/5/15,3:30:00,0,1.6051,3.474
1/5/15,3:45:00,0,1.601,3.468
1/5/15,4:00:00,0,1.609,3.465
1/5/15,4:15:00,0,1.5999,3.458
1/5/15,4:30:00,0,1.6024,3.452
1/5/15,4:45:00,0,1.604,3.452
1/5/15,5:00:00,0,1.6031,3.447
1/5/15,5:15:00,0,1.6013,3.443
1/5/15,5:30:00,0,1.5997,3.442
1/5/15,5:45:00,0,1.6036,3.438
1/5/15,6:00:00,0,1.6032,3.433
1/5/15,6:15:00,0,1.6045,3.434
1/5/15,6:30:00,0,1.604,3.43
1/5/15,6:45:00,0,1.5972,3.429
1/5/15,7:00:00,0,1.5993,3.429
1/5/15,7:15:00,0,1.5984,3.434
1/5/15,7:30:00,0,1.6016,3.431
1/5/15,7:45:00,0,1.5986,3.434
1/5/15,8:00:00,0,1.5971,3.434
1/5/15,8:15:00,0,1.5971,3.439
1/5/15,8:30:00,0,1.5983,3.443
1/5/15,8:45:00,0,1.6013,3.45
1/5/15,9:00:00,0,1.6064,3.455
1/5/15,9:15:00,0,1.6001,3.456
1/5/15,9:30:00,0,1.5944,3.462
1/5/15,9:45:00,0,1.599,3.469
1/5/15,10:00:00,0,1.601,3.473
1/5/15,10:15:00,0,1.6,3.483
1/5/15,10:30:00,0,1.592,3.491
1/5/15,10:45:00,0,1.5917,3.506
1/5/15,11:00:00,0,1.5926,3.523
1/5/15,11:15:00,0,1.5933,3.543
1/5/15,11:30:00,0,1.5887,3.572
1/5/15,11:45:00,0,1.5875,3.594
1/5/15,12:00:00,0,1.5852,3.609
1/5/15,12:15:00,0,1.5803,3.621
1/5/15,12:30:00,0,1.5771,3.651
1/5/15,12:45:00,0,1.5749,3.698
1/5/15,13:00:00,0,1.5669,3.742
1/5/15,13:15:00,0,1.5702,3.761
1/5/15,13:30:00,0,1.5665,3.808
1/5/15,13:45:00,0,1.5644,3.84
1/5/15,14:00:00,0,1.5585,3.897
1/5/15,14:15:00,0,1.5616,3.936
1/5/15,14:30:00,0,1.5568,3.966
1/5/15,14:45:00,0,1.556,4.004
1/5/15,15:00:00,0,1.559,4.019
1/5/15,15:15:00,0,1.5544,4.052
1/5/15,15:30:00,0,1.5547,4.062
1/5/15,15:45:00,0,1.5526,4.082
1/5/15,16:00:00,0,1.5566,4.083
1/5/15,16:15:00,0,1.5536,4.085
1/5/15,16:30:00,0,1.5539,4.093
1/5/15,16:45:00,0,1.5505,4.094
1/5/15,17:00:00,0,1.5569,4.092
1/5/15,17:15:00,0,1.549,4.094
1/5/15,17:30:00,0,1.5517,4.101
1/5/15,17:45:00,0,1.553,4.112
1/5/15,18:00:00,0,1.5608,4.125
1/5/15,18:15:00,0,1.5547,4.141
1/5/15,18:30:00,0,1.5612,4.155
1/5/15,18:45:00,0,1.5617,4.172
1/5/15,19:00:00,0,1.5592,4.194
1/5/15,19:15:00,0,1.5587,4.215
1/5/15,19:30:00,0,1.558,4.238
1/5/15,19:45:00,0,1.5552,4.259
1/5/15,20:00:00,0,1.5634,4.28
1/5/15,20:15:00,0,1.5591,4.294
1/5/15,20:30:00,0,1.552,4.313
1/5/15,20:45:00,0,1.5545,4.325
1/5/15,21:00:00,0,1.5589,4.333
1/5/15,21:15:00,0,1.5581,4.339
1/5/15,21:30:00,0,1.5642,4.343
1/5/15,21:45:00,0,1.5568,4.343
1/5/15,22:00:00,0,1.5614,4.339
1/5/15,22:15:00,0,1.5537,4.335
1/5/15,22:30:00,0,1.5572,4.332
1/5/15,22:45:00,0,1.5632,4.326
1/5/15,23:00:00,0,1.5659,4.321
1/5/15,23:15:00,0,1.5603,4.314
1/5/15,23:30:00,0,1.5592,4.307
1/5/15,23:45:00,0,1.5571,4.302
1/6/15,0:00:00,0,1.5566,4.296
1/6/15,0:15:00,0,1.5559,4.293
1/6/15,0:30:00,0,1.5626,4.287
1/6/15,0:45:00,0,1.5562,4.279
1/6/15,1:00:00,0,1.5567,4.272
1/6/15,1:15:00,0,1.5573,4.267
1/6/15,1:30:00,0,1.5545,4.26
1/6/15,1:45:00,0,1.5531,4.253
1/6/15,2:00:00,0,1.5559,4.25
1/6/15,2:15:00,0,1.5551,4.243
1/6/15,2:30:00,0,1.5537,4.239
1/6/15,2:45:00,0,1.5581,4.237
1/6/15,3:00:00,0,1.557,4.234
1/6/15,3:15:00,0,1.5574,4.231
1/6/15,3:30:00,0,1.5585,4.229
1/6/15,3:45:00,0,1.5603,4.227
1/6/15,4:00:00,0,1.5605,4.227
1/6/15,4:15:00,0,1.5572,4.224
1/6/15,4:30:00,0,1.5626,4.22
1/6/15,4:45:00,0,1.5614,4.218
1/6/15,5:00:00,0,1.5559,4.215
1/6/15,5:15:00,0,1.5582,4.212
1/6/15,5:30:00,0,1.5614,4.207
1/6/15,5:45:00,0,1.5559,4.201
1/6/15,6:00:00,0,1.5554,4.198
1/6/15,6:15:00,0,1.557,4.192
1/6/15,6:30:00,0,1.5578,4.187
1/6/15,6:45:00,0,1.5644,4.184
1/6/15,7:00:00,0,1.5645,4.18
1/6/15,7:15:00,0,1.565,4.174
1/6/15,7:30:00,0,1.5616,4.17
1/6/15,7:45:00,0,1.5615,4.166
1/6/15,8:00:00,0,1.5609,4.16
1/6/15,8:15:00,0,1.566,4.156
1/6/15,8:30:00,0,1.5694,4.153
1/6/15,8:45:00,0,1.5713,4.154
1/6/15,9:00:00,0,1.5682,4.158
1/6/15,9:15:00,0,1.5725,4.16
1/6/15,9:30:00,0,1.5773,4.164
1/6/15,9:45:00,0,1.5752,4.17
1/6/15,10:00:00,0,1.5774,4.175
1/6/15,10:15:00,0,1.5878,4.181
1/6/15,10:30:00,0,1.5803,4.189
1/6/15,10:45:00,0,1.5803,4.198
1/6/15,11:00:00,0,1.5772,4.205
1/6/15,11:15:00,0,1.5819,4.215
1/6/15,11:30:00,0,1.5699,4.223
1/6/15,11:45:00,0,1.5693,4.233
1/6/15,12:00:00,0,1.5655,4.244
1/6/15,12:15:00,0,1.5618,4.255
1/6/15,12:30:00,0,1.5599,4.274
1/6/15,12:45:00,0,1.5567,4.325
1/6/15,13:00:00,0,1.5566,4.352
1/6/15,13:15:00,0,1.5491,4.375
1/6/15,13:30:00,0,1.5444,4.411
1/6/15,13:45:00,0,1.5443,4.455
1/6/15,14:00:00,0,1.5383,4.501
1/6/15,14:15:00,0,1.536,4.54
1/6/15,14:30:00,0,1.54,4.574
1/6/15,14:45:00,0,1.5385,4.603
1/6/15,15:00:00,0,1.5378,4.624
1/6/15,15:15:00,0,1.5305,4.646
1/6/15,15:30:00,0,1.5361,4.655
1/6/15,15:45:00,0,1.5403,4.658
1/6/15,16:00:00,0,1.5367,4.635
1/6/15,16:15:00,0,1.5384,4.625
1/6/15,16:30:00,0,1.5427,4.615
1/6/15,16:45:00,0,1.5382,4.603
1/6/15,17:00:00,0,1.5425,4.596
1/6/15,17:15:00,0,1.5377,4.599
1/6/15,17:30:00,0,1.5405,4.602
1/6/15,17:45:00,0,1.543,4.615
1/6/15,18:00:00,0,1.5413,4.632
1/6/15,18:15:00,0,1.5484,4.649
1/6/15,18:30:00,0,1.5491,4.669
1/6/15,18:45:00,0,1.553,4.691
1/6/15,19:00:00,0,1.5528,4.714
1/6/15,19:15:00,0,1.554,4.74
1/6/15,19:30:00,0,1.5533,4.765
1/6/15,19:45:00,0,1.5508,4.788
1/6/15,20:00:00,0,1.555,4.811
1/6/15,20:15:00,0,1.5583,4.835
1/6/15,20:30:00,0,1.5547,4.853
1/6/15,20:45:00,0,1.5569,4.868
1/6/15,21:00:00,0,1.5612,4.875
1/6/15,21:15:00,0,1.554,4.879
1/6/15,21:30:00,0,1.5618,4.878
1/6/15,21:45:00,0,1.5587,4.873
1/6/15,22:00:00,0,1.5613,4.865
1/6/15,22:15:00,0,1.5704,4.858
1/6/15,22:30:00,0,1.5678,4.853
1/6/15,22:45:00,0,1.5711,4.849
1/6/15,23:00:00,0,1.5685,4.846
1/6/15,23:15:00,0,1.5638,4.843
1/6/15,23:30:00,0,1.566,4.836
1/6/15,23:45:00,0,1.5666,4.832
1/7/15,0:00:00,0,1.5556,4.824
1/7/15,0:15:00,0,1.567,4.817
1/7/15,0:30:00,0,1.5666,4.806
1/7/15,0:45:00,0,1.5552,4.797
1/7/15,1:00:00,0,1.5579,4.786
1/7/15,1:15:00,0,1.5588,4.778
1/7/15,1:30:00,0,1.5618,4.769
1/7/15,1:45:00,0,1.5681,4.763
1/7/15,2:00:00,0,1.5656,4.757
1/7/15,2:15:00,0,1.562,4.75
1/7/15,2:30:00,0,1.5623,4.745
1/7/15,2:45:00,0,1.5667,4.738
1/7/15,3:00:00,0,1.5701,4.733
1/7/15,3:15:00,0,1.561,4.728
1/7/15,3:30:00,0,1.5647,4.723
1/7/15,3:45:00,0,1.5627,4.716
1/7/15,4:00:00,0,1.5606,4.711
1/7/15,4:15:00,0,1.558,4.706
1/7/15,4:30:00,0,1.5608,4.7
1/7/15,4:45:00,0,1.5549,4.693
1/7/15,5:00:00,0,1.5553,4.688
1/7/15,5:15:00,0,1.5544,4.681
1/7/15,5:30:00,0,1.547,4.677
1/7/15,5:45:00,0,1.5528,4.671
1/7/15,6:00:00,0,1.5555,4.665
1/7/15,6:15:00,0,1.5586,4.661
1/7/15,6:30:00,0,1.5594,4.655
1/7/15,6:45:00,0,1.553,4.652
1/7/15,7:00:00,0,1.5561,4.648
1/7/15,7:15:00,0,1.5627,4.645
1/7/15,7:30:00,0,1.5587,4.642
1/7/15,7:45:00,0,1.5652,4.64
1/7/15,8:00:00,0,1.5641,4.639
1/7/15,8:15:00,0,1.5739,4.637
1/7/15,8:30:00,0,1.5732,4.635
1/7/15,8:45:00,0,1.5748,4.63
1/7/15,9:00:00,0,1.5773,4.63
1/7/15,9:15:00,0,1.5849,4.628
1/7/15,9:30:00,0,1.587,4.629
1/7/15,9:45:00,0,1.5852,4.627
1/7/15,10:00:00,0,1.5918,4.632
1/7/15,10:15:00,0,1.5901,4.635
1/7/15,10:30:00,0,1.5881,4.638
1/7/15,10:45:00,0,1.5876,4.646
1/7/15,11:00:00,0,1.5903,4.651
1/7/15,11:15:00,0,1.592,4.658
1/7/15,11:30:00,0,1.5908,4.668
1/7/15,11:45:00,0,1.5882,4.676
1/7/15,12:00:00,0,1.5776,4.685
1/7/15,12:15:00,0,1.5834,4.695
1/7/15,12:30:00,0,1.5718,4.711
1/7/15,12:45:00,0,1.5726,4.754
1/7/15,13:00:00,0,1.5708,4.77
1/7/15,13:15:00,0,1.5652,4.792
1/7/15,13:30:00,0,1.5577,4.828
1/7/15,13:45:00,0,1.5586,4.865
1/7/15,14:00:00,0,1.5518,4.91
1/7/15,14:15:00,0,1.5536,4.945
1/7/15,14:30:00,0,1.5529,4.979
1/7/15,14:45:00,0,1.5508,5.004
1/7/15,15:00:00,0,1.5447,5.027
1/7/15,15:15:00,0,1.5466,5.046
1/7/15,15:30:00,0,1.5492,5.058
1/7/15,15:45:00,0,1.5493,5.067
1/7/15,16:00:00,0,1.5506,5.049
1/7/15,16:15:00,0,1.5457,5.038
1/7/15,16:30:00,0,1.5512,5.031
1/7/15,16:45:00,0,1.5459,5.026
1/7/15,17:00:00,0,1.5462,5.027
1/7/15,17:15:00,0,1.537,5.033
1/7/15,17:30:00,0,1.5462,5.048
1/7/15,17:45:00,0,1.5464,5.073
1/7/15,18:00:00,0,1.5424,5.096
1/7/15,18:15:00,0,1.5529,5.119
1/7/15,18:30:00,0,1.5432,5.143
1/7/15,18:45:00,0,1.5477,5.165
1/7/15,19:00:00,0,1.5455,5.185
1/7/15,19:15:00,0,1.5491,5.207
1/7/15,19:30:00,0,1.5459,5.232
1/7/15,19:45:00,0,1.5433,5.255
1/7/15,20:00:00,0,1.5481,5.273
1/7/15,20:15:00,0,1.5461,5.291
1/7/15,20:30:00,0,1.544,5.301
1/7/15,20:45:00,0,1.5446,5.309
1/7/15,21:00:00,0,1.5371,5.311
1/7/15,21:15:00,0,1.5435,5.307
1/7/15,21:30:00,0,1.5409,5.299
1/7/15,21:45:00,0,1.5337,5.29
1/7/15,22:00:00,0,1.5358,5.28
1/7/15,22:15:00,0,1.5356,5.271
1/7/15,22:30:00,0,1.5378,5.266
1/7/15,22:45:00,0,1.5438,5.26
1/7/15,23:00:00,0,1.548,5.252
1/7/15,23:15:00,0,1.5444,5.246
1/7/15,23:30:00,0,1.5341,5.234
1/7/15,23:45:00,0,1.5355,5.222
1/8/15,0:00:00,0,1.5281,5.209
1/8/15,0:15:00,0,1.5372,5.197
1/8/15,0:30:00,0,1.534,5.184
1/8/15,0:45:00,0,1.5303,5.171
1/8/15,1:00:00,0,1.5312,5.156
1/8/15,1:15:00,0,1.5277,5.144
1/8/15,1:30:00,0,1.5236,5.135
1/8/15,1:45:00,0,1.5251,5.123
1/8/15,2:00:00,0,1.5297,5.115
1/8/15,2:15:00,0,1.5296,5.105
1/8/15,2:30:00,0,1.5227,5.097
1/8/15,2:45:00,0,1.5325,5.091
1/8/15,3:00:00,0,1.5302,5.083
1/8/15,3:15:00,0,1.5308,5.076
1/8/15,3:30:00,0,1.5278,5.067
1/8/15,3:45:00,0,1.5384,5.061
1/8/15,4:00:00,0,1.5401,5.053
1/8/15,4:15:00,0,1.5355,5.047
1/8/15,4:30:00,0,1.5355,5.039
1/8/15,4:45:00,0,1.5393,5.032
1/8/15,5:00:00,0,1.5352,5.026
1/8/15,5:15:00,0,1.5328,5.021
1/8/15,5:30:00,0,1.5402,5.017
1/8/15,5:45:00,0,1.538,5.01
1/8/15,6:00:00,0,1.536,5.005
1/8/15,6:15:00,0,1.5375,4.999
1/8/15,6:30:00,0,1.5373,4.994
1/8/15,6:45:00,0,1.5321,4.988
1/8/15,7:00:00,0,1.5343,4.982
1/8/15,7:15:00,0,1.5364,4.973
1/8/15,7:30:00,0,1.5334,4.965
1/8/15,7:45:00,0,1.5389,4.957
1/8/15,8:00:00,0,1.5318,4.948
1/8/15,8:15:00,0,1.5392,4.94
1/8/15,8:30:00,0,1.5432,4.931
1/8/15,8:45:00,0,1.54,4.923
1/8/15,9:00:00,0,1.5416,4.917
1/8/15,9:15:00,0,1.5437,4.913
1/8/15,9:30:00,0,1.5448,4.909
1/8/15,9:45:00,0,1.5451,4.908
1/8/15,10:00:00,0,1.5451,4.907
1/8/15,10:15:00,0,1.5464,4.908
1/8/15,10:30:00,0,1.5562,4.908
1/8/15,10:45:00,0,1.5498,4.907
1/8/15,11:00:00,0,1.5476,4.91
1/8/15,11:15:00,0,1.5496,4.913
1/8/15,11:30:00,0,1.545,4.916
1/8/15,11:45:00,0,1.549,4.919
1/8/15,12:00:00,0,1.5509,4.923
1/8/15,12:15:00,0,1.5403,4.93
1/8/15,12:30:00,0,1.5375,4.949
1/8/15,12:45:00,0,1.5335,4.989
1/8/15,13:00:00,0,1.5299,5.001
1/8/15,13:15:00,0,1.5223,4.999
1/8/15,13:30:00,0,1.5307,5.023
1/8/15,13:45:00,0,1.5221,5.07
1/8/15,14:00:00,0,1.5241,5.093
1/8/15,14:15:00,0,1.518,5.122
1/8/15,14:30:00,0,1.5245,5.148
1/8/15,14:45:00,0,1.5154,5.167
1/8/15,15:00:00,0,1.5241,5.191
1/8/15,15:15:00,0,1.5206,5.214
1/8/15,15:30:00,0,1.5192,5.24
1/8/15,15:45:00,0,1.5182,5.269
1/8/15,16:00:00,0,1.5214,5.289
1/8/15,16:15:00,0,1.5173,5.305
1/8/15,16:30:00,0,1.5156,5.321
1/8/15,16:45:00,0,1.5146,5.339
1/8/15,17:00:00,0,1.5175,5.358
1/8/15,17:15:00,0,1.5181,5.38
1/8/15,17:30:00,0,1.5137,5.406
1/8/15,17:45:00,0,1.5169,5.438
1/8/15,18:00:00,0,1.5128,5.469
1/8/15,18:15:00,0,1.5155,5.502
1/8/15,18:30:00,0,1.5156,5.533
1/8/15,18:45:00,0,1.5214,5.555
1/8/15,19:00:00,0,1.5201,5.571
1/8/15,19:15:00,0,1.516,5.578
1/8/15,19:30:00,0,1.5171,5.582
1/8/15,19:45:00,0,1.5146,5.586
1/8/15,20:00:00,0,1.5178,5.584
1/8/15,20:15:00,0,1.516,5.578
1/8/15,20:30:00,0,1.5167,5.569
1/8/15,20:45:00,0,1.516,5.555
1/8/15,21:00:00,0,1.5178,5.547